Flag for Germany Weather past 2 weeks in Fürstenfeldbruck, Bavaria, Germany

Now
66 °F

Mild.


Feels Like: 66 °F
Forecast: 60 / 84 °F
Wind: 8 mph from South

Location: Lechfeld

Current Time: Aug 31, 2015 at 3:13:26 AM

Latest Report: Aug 31, 2015 at 2:20 AM


Visibility: N/A

Pressure: 30.07 "Hg (28.30 "Hg at 520m altitude)

Humidity: 88%

Dew point: 63 °F

Location of FürstenfeldbruckLocation

Historic Weather in Fürstenfeldbruck — Graph

°F

Fürstenfeldbruck temperature yesterday

Maximum temperature yesterday: 90 °F (at 5:20 PM)
Minimum temperature yesterday: 61 °F (at 4:20 AM)
Average temperature yesterday: 75 °F

Past Weeks' High & Low Weather Summary

 TemperatureHumidityPressure
High90 °F (Aug 30, 5:20 PM)100% (Aug 16, 2:20 AM)30.30 "Hg (Aug 16, 2:20 AM)
Low46 °F (Aug 21, 6:20 AM)33% (Aug 25, 5:03 PM)29.74 "Hg (Aug 24, 3:20 PM)
Average64 °F74%30.05 "Hg
* Reported Aug 16 1:20 AM — Aug 31 1:20 AM, Fürstenfeldbruck, Weather by CustomWeather, © 2015

Note: Actual official high and low records may vary slightly from our data, if they occured in-between our weather recording intervals... More about our weather records

Advertising

Fürstenfeldbruck weather history for previous 24 hours

 ConditionsComfort  
Time TempWeatherWind HumidityBarometerVisibility
1:20 AM
Mon, Aug 31
66 °FPassing clouds.5 mph78%30.07 "HgN/A
12:20 AM68 °FMild.5 mph83%30.09 "HgN/A
11:20 PM
Sun, Aug 30
72 °FMild.7 mph73%30.09 "HgN/A
10:20 PM68 °FMild.2 mph83%30.09 "HgN/A
9:20 PM73 °FPassing clouds.3 mph69%30.09 "HgN/A
8:20 PM77 °FPassing clouds.2 mph61%30.07 "HgN/A
7:20 PM86 °FPassing clouds.2 mph43%30.07 "HgN/A
6:20 PM88 °FPassing clouds.No wind35%30.07 "HgN/A
5:20 PM90 °FPassing clouds.3 mph36%30.09 "HgN/A
4:20 PM88 °FPassing clouds.5 mph40%30.09 "HgN/A
3:20 PM88 °FPassing clouds.7 mph38%30.12 "HgN/A
2:20 PM86 °FPassing clouds.7 mph46%30.12 "HgN/A
1:20 PM84 °FPassing clouds.9 mph48%30.15 "HgN/A
12:20 PM82 °FWarm.8 mph51%30.15 "HgN/A
11:20 AM81 °FPassing clouds.10 mph54%30.18 "HgN/A
10:20 AM79 °FPassing clouds.10 mph58%30.18 "HgN/A
9:20 AM75 °FPassing clouds.7 mph69%30.18 "HgN/A
8:20 AM70 °FPassing clouds.7 mph78%30.15 "HgN/A
7:20 AM64 °FPassing clouds.5 mph88%30.15 "HgN/A
6:20 AM63 °FPassing clouds.5 mph88%30.15 "HgN/A
5:20 AM64 °FMild.6 mph88%30.12 "HgN/A
4:20 AM61 °FCool.5 mph94%30.12 "HgN/A
3:20 AM63 °FMild.1 mph94%30.15 "HgN/A
Weather by CustomWeather, © 2015

See weather overviewHow to use our weather pages